PTTBR SBRF-SBFN

Flight info

Callsign PTTBR
Flight time 0h 51m
Altitude 23000
Route ISADO W41 TOMEK
Aircraft C750/M-SBDE3FGHRWXY/S

Departure

Time 2026-04-26 01:56
Airport Recife/Guararapes - Gilberto Freyre International Airport (SBRF)

Arrival

Time 2026-04-26 02:47
Airport Fernando de Noronha Airport (SBFN)
Time Latitude Longitude Altitude Speed Heading
2026-04-26 01:33 -8.12458 -34.92626 48 ft 0 kts 213°
2026-04-26 01:44 -8.12447 -34.92622 48 ft 2 kts 167°
2026-04-26 01:45 -8.12434 -34.92630 48 ft 2 kts 117°
2026-04-26 01:45 -8.12429 -34.92640 48 ft 0 kts 123°
2026-04-26 01:45 -8.12428 -34.92642 48 ft 0 kts 125°
2026-04-26 01:47 -8.12443 -34.92621 48 ft 6 kts 125°
2026-04-26 01:47 -8.12473 -34.92578 48 ft 7 kts 126°
2026-04-26 01:48 -8.12500 -34.92538 48 ft 6 kts 121°
2026-04-26 01:48 -8.12514 -34.92500 48 ft 5 kts 78°
2026-04-26 01:48 -8.12485 -34.92482 47 ft 6 kts
2026-04-26 01:48 -8.12429 -34.92481 47 ft 10 kts 359°
2026-04-26 01:49 -8.12352 -34.92507 47 ft 14 kts 311°
2026-04-26 01:49 -8.12271 -34.92586 48 ft 17 kts 336°
2026-04-26 01:49 -8.12157 -34.92590 47 ft 14 kts 11°
2026-04-26 01:49 -8.12129 -34.92585 47 ft 0 kts 11°
2026-04-26 01:50 -8.12123 -34.92584 47 ft 2 kts 11°
2026-04-26 01:50 -8.12082 -34.92576 47 ft 9 kts 11°
2026-04-26 01:50 -8.12014 -34.92545 47 ft 13 kts 72°
2026-04-26 01:51 -8.12045 -34.92510 47 ft 4 kts 164°
2026-04-26 01:51 -8.12048 -34.92509 47 ft 0 kts 164°
2026-04-26 01:55 -8.12054 -34.92508 47 ft 10 kts 164°
2026-04-26 01:55 -8.12462 -34.92370 48 ft 114 kts 161°
2026-04-26 01:56 -8.13292 -34.92098 419 ft 131 kts 160°
2026-04-26 01:56 -8.14278 -34.91775 1308 ft 163 kts 161°
2026-04-26 01:56 -8.15376 -34.91420 2246 ft 178 kts 161°
2026-04-26 01:56 -8.16624 -34.91016 2892 ft 208 kts 161°
2026-04-26 01:57 -8.17959 -34.90296 3709 ft 228 kts 130°
2026-04-26 01:57 -8.18510 -34.88878 4863 ft 233 kts 96°
2026-04-26 01:57 -8.18121 -34.87105 4998 ft 281 kts 64°
2026-04-26 01:57 -8.17076 -34.85424 4978 ft 284 kts 60°
2026-04-26 01:58 -8.16071 -34.83736 4961 ft 276 kts 63°
2026-04-26 01:58 -8.15122 -34.82050 4964 ft 273 kts 63°
2026-04-26 01:58 -8.14205 -34.80370 4966 ft 273 kts 64°
2026-04-26 01:58 -8.13301 -34.78686 4965 ft 273 kts 64°
2026-04-26 01:59 -8.12408 -34.77010 4965 ft 273 kts 64°
2026-04-26 01:59 -8.11515 -34.75327 4965 ft 273 kts 64°
2026-04-26 01:59 -8.10624 -34.73644 4965 ft 273 kts 64°
2026-04-26 01:59 -8.09728 -34.71949 4965 ft 273 kts 64°
2026-04-26 02:00 -8.08793 -34.70278 4961 ft 274 kts 58°
2026-04-26 02:00 -8.07598 -34.68665 5807 ft 295 kts 55°
2026-04-26 02:00 -8.06456 -34.67142 7586 ft 277 kts 55°
2026-04-26 02:00 -8.05258 -34.65539 8408 ft 295 kts 55°
2026-04-26 02:01 -8.04030 -34.63898 9513 ft 296 kts 55°
2026-04-26 02:01 -8.02781 -34.62226 10353 ft 308 kts 55°
2026-04-26 02:01 -8.01430 -34.60415 10692 ft 336 kts 54°
2026-04-26 02:01 -8.00053 -34.58576 11899 ft 331 kts 54°
2026-04-26 02:02 -7.98655 -34.56705 12749 ft 339 kts 54°
2026-04-26 02:02 -7.97244 -34.54819 13672 ft 343 kts 54°
2026-04-26 02:02 -7.95803 -34.52891 14671 ft 345 kts 54°
2026-04-26 02:02 -7.94363 -34.50969 15589 ft 350 kts 53°
2026-04-26 02:03 -7.92666 -34.49173 16084 ft 359 kts 43°
2026-04-26 02:03 -7.90840 -34.47501 17195 ft 357 kts 43°
2026-04-26 02:03 -7.89021 -34.45823 18216 ft 358 kts 43°
2026-04-26 02:03 -7.87167 -34.44106 19070 ft 365 kts 43°
2026-04-26 02:04 -7.85319 -34.42391 20048 ft 367 kts 43°
2026-04-26 02:04 -7.83439 -34.40648 20951 ft 372 kts 44°
2026-04-26 02:04 -7.81522 -34.38869 21820 ft 377 kts 44°
2026-04-26 02:04 -7.79594 -34.37080 22687 ft 382 kts 44°
2026-04-26 02:05 -7.77634 -34.35262 23566 ft 387 kts 44°
2026-04-26 02:05 -7.75627 -34.33399 24452 ft 393 kts 44°
2026-04-26 02:05 -7.73616 -34.31539 25306 ft 399 kts 45°
2026-04-26 02:05 -7.71570 -34.29630 26161 ft 404 kts 45°
2026-04-26 02:06 -7.69501 -34.27711 26972 ft 410 kts 45°
2026-04-26 02:06 -7.67374 -34.25741 27861 ft 416 kts 45°
2026-04-26 02:06 -7.65229 -34.23762 28736 ft 423 kts 45°
2026-04-26 02:06 -7.63072 -34.21751 29611 ft 429 kts 45°
2026-04-26 02:07 -7.60873 -34.19711 30462 ft 435 kts 45°
2026-04-26 02:07 -7.58622 -34.17622 31315 ft 441 kts 44°
2026-04-26 02:07 -7.56368 -34.15531 32083 ft 447 kts 44°
2026-04-26 02:07 -7.54053 -34.13388 32858 ft 453 kts 44°
2026-04-26 02:08 -7.51713 -34.11225 33622 ft 459 kts 43°
2026-04-26 02:08 -7.49344 -34.09033 34350 ft 465 kts 43°
2026-04-26 02:08 -7.46976 -34.06836 35044 ft 470 kts 42°
2026-04-26 02:08 -7.44271 -34.04975 35612 ft 477 kts 25°
2026-04-26 02:09 -7.41179 -34.03749 36472 ft 476 kts 21°
2026-04-26 02:09 -7.38106 -34.02566 37320 ft 474 kts 21°
2026-04-26 02:09 -7.35030 -34.01362 38184 ft 472 kts 21°
2026-04-26 02:09 -7.31953 -34.00140 39197 ft 468 kts 21°
2026-04-26 02:10 -7.28921 -33.98953 40145 ft 465 kts 20°
2026-04-26 02:10 -7.25928 -33.97781 41059 ft 463 kts 21°
2026-04-26 02:10 -7.22876 -33.96571 41126 ft 480 kts 20°
2026-04-26 02:11 -7.16531 -33.94072 41218 ft 489 kts 22°
2026-04-26 02:11 -7.13371 -33.92824 40939 ft 479 kts 21°
2026-04-26 02:11 -7.10283 -33.91611 40944 ft 471 kts 22°
2026-04-26 02:12 -7.04153 -33.89188 40947 ft 477 kts 21°
2026-04-26 02:12 -6.97909 -33.86741 40954 ft 482 kts 21°
2026-04-26 02:13 -6.91632 -33.84287 40949 ft 480 kts 21°
2026-04-26 02:13 -6.85377 -33.81823 40972 ft 480 kts 21°
2026-04-26 02:14 -6.79159 -33.79380 40977 ft 481 kts 21°
2026-04-26 02:14 -6.72943 -33.76937 40956 ft 481 kts 21°
2026-04-26 02:15 -6.66695 -33.74479 40960 ft 480 kts 21°
2026-04-26 02:15 -6.60451 -33.72021 40961 ft 481 kts 21°
2026-04-26 02:16 -6.54162 -33.69556 40968 ft 481 kts 21°
2026-04-26 02:16 -6.47938 -33.67102 40963 ft 481 kts 21°
2026-04-26 02:17 -6.41665 -33.64646 40958 ft 481 kts 21°
2026-04-26 02:17 -6.35417 -33.62207 40956 ft 481 kts 21°
2026-04-26 02:18 -6.29149 -33.59741 40959 ft 481 kts 21°
2026-04-26 02:18 -6.22909 -33.57294 40964 ft 481 kts 21°
2026-04-26 02:19 -6.16655 -33.54852 40967 ft 481 kts 22°
2026-04-26 02:19 -6.10407 -33.52386 40962 ft 469 kts 21°
2026-04-26 02:19 -6.07438 -33.51221 40929 ft 450 kts 21°
2026-04-26 02:20 -6.04557 -33.50113 40917 ft 443 kts 22°
2026-04-26 02:20 -6.01661 -33.48975 40685 ft 449 kts 21°
2026-04-26 02:20 -5.98718 -33.47816 40251 ft 456 kts 21°
2026-04-26 02:20 -5.95731 -33.46643 39740 ft 457 kts 21°
2026-04-26 02:21 -5.92780 -33.45478 39323 ft 454 kts 21°
2026-04-26 02:21 -5.89834 -33.44336 38692 ft 450 kts 21°
2026-04-26 02:21 -5.86951 -33.43210 38170 ft 447 kts 21°
2026-04-26 02:21 -5.84014 -33.42056 37652 ft 447 kts 21°
2026-04-26 02:22 -5.81115 -33.40932 37152 ft 449 kts 21°
2026-04-26 02:22 -5.78221 -33.39787 36682 ft 451 kts 21°
2026-04-26 02:22 -5.75288 -33.38638 36191 ft 453 kts 21°
2026-04-26 02:22 -5.72308 -33.37488 35692 ft 454 kts 20°
2026-04-26 02:23 -5.69357 -33.36336 35187 ft 456 kts 21°
2026-04-26 02:23 -5.66387 -33.35169 34677 ft 458 kts 21°
2026-04-26 02:23 -5.63433 -33.34006 34181 ft 459 kts 21°
2026-04-26 02:23 -5.60428 -33.32834 33672 ft 461 kts 21°
2026-04-26 02:24 -5.57439 -33.31664 33163 ft 462 kts 21°
2026-04-26 02:24 -5.54425 -33.30487 32641 ft 464 kts 21°
2026-04-26 02:24 -5.51427 -33.29322 32122 ft 466 kts 22°
2026-04-26 02:24 -5.48387 -33.28122 31591 ft 467 kts 22°
2026-04-26 02:25 -5.45333 -33.26926 31077 ft 469 kts 21°
2026-04-26 02:25 -5.42353 -33.25761 30556 ft 455 kts 22°
2026-04-26 02:25 -5.39458 -33.24633 30056 ft 441 kts 22°
2026-04-26 02:25 -5.36595 -33.23518 29566 ft 434 kts 22°
2026-04-26 02:26 -5.33794 -33.22417 29097 ft 433 kts 22°
2026-04-26 02:26 -5.30978 -33.21319 28627 ft 433 kts 22°
2026-04-26 02:26 -5.28173 -33.20225 28169 ft 431 kts 22°
2026-04-26 02:26 -5.25390 -33.19138 27703 ft 428 kts 22°
2026-04-26 02:27 -5.22611 -33.18053 27232 ft 425 kts 22°
2026-04-26 02:27 -5.19844 -33.16972 26767 ft 422 kts 22°
2026-04-26 02:27 -5.17134 -33.15914 26305 ft 418 kts 22°
2026-04-26 02:27 -5.14433 -33.14859 25842 ft 415 kts 22°
2026-04-26 02:28 -5.11731 -33.13804 25379 ft 412 kts 22°
2026-04-26 02:28 -5.09054 -33.12759 24916 ft 409 kts 22°
2026-04-26 02:28 -5.06425 -33.11733 24465 ft 406 kts 22°
2026-04-26 02:28 -5.03783 -33.10702 24013 ft 403 kts 22°
2026-04-26 02:29 -5.01200 -33.09694 23575 ft 400 kts 22°
2026-04-26 02:29 -4.98598 -33.08678 23136 ft 397 kts 22°
2026-04-26 02:29 -4.96038 -33.07679 22701 ft 394 kts 22°
2026-04-26 02:29 -4.93469 -33.06677 22263 ft 391 kts 23°
2026-04-26 02:30 -4.90935 -33.05689 21832 ft 388 kts 23°
2026-04-26 02:30 -4.88447 -33.04718 21420 ft 385 kts 23°
2026-04-26 02:30 -4.85948 -33.03743 20997 ft 382 kts 23°
2026-04-26 02:30 -4.83478 -33.02779 20574 ft 379 kts 23°
2026-04-26 02:31 -4.81006 -33.01815 20153 ft 376 kts 23°
2026-04-26 02:31 -4.78592 -33.00874 19744 ft 373 kts 22°
2026-04-26 02:31 -4.76151 -32.99922 19328 ft 370 kts 22°
2026-04-26 02:31 -4.73748 -32.98985 18917 ft 368 kts 22°
2026-04-26 02:32 -4.71370 -32.98058 18509 ft 365 kts 22°
2026-04-26 02:32 -4.69001 -32.97134 18104 ft 363 kts 22°
2026-04-26 02:32 -4.66667 -32.96224 17704 ft 360 kts 22°
2026-04-26 02:32 -4.64328 -32.95312 17303 ft 357 kts 23°
2026-04-26 02:33 -4.62005 -32.94407 16905 ft 355 kts 23°
2026-04-26 02:33 -4.59713 -32.93514 16513 ft 353 kts 23°
2026-04-26 02:33 -4.57406 -32.92614 16118 ft 351 kts 22°
2026-04-26 02:33 -4.55135 -32.91730 15730 ft 349 kts 22°
2026-04-26 02:34 -4.52863 -32.90844 15340 ft 347 kts 22°
2026-04-26 02:34 -4.50613 -32.89968 14954 ft 346 kts 22°
2026-04-26 02:34 -4.48354 -32.89087 14568 ft 344 kts 22°
2026-04-26 02:34 -4.46131 -32.88221 14187 ft 343 kts 22°
2026-04-26 02:35 -4.43894 -32.87349 13806 ft 342 kts 22°
2026-04-26 02:35 -4.41675 -32.86485 13426 ft 340 kts 22°
2026-04-26 02:35 -4.39465 -32.85624 13049 ft 339 kts 22°
2026-04-26 02:35 -4.37282 -32.84774 12675 ft 338 kts 22°
2026-04-26 02:36 -4.35058 -32.83908 12295 ft 337 kts 22°
2026-04-26 02:36 -4.32871 -32.83056 11921 ft 335 kts 22°
2026-04-26 02:36 -4.30715 -32.82216 11553 ft 334 kts 22°
2026-04-26 02:36 -4.28519 -32.81361 11177 ft 333 kts 22°
2026-04-26 02:37 -4.26387 -32.80532 10812 ft 331 kts 22°
2026-04-26 02:37 -4.24260 -32.79704 10441 ft 321 kts 22°
2026-04-26 02:37 -4.22189 -32.78897 10085 ft 311 kts 22°
2026-04-26 02:37 -4.20213 -32.78128 9747 ft 303 kts 22°
2026-04-26 02:38 -4.18248 -32.77361 9411 ft 296 kts 22°
2026-04-26 02:38 -4.16365 -32.76627 9091 ft 290 kts 22°
2026-04-26 02:38 -4.14460 -32.75885 8770 ft 289 kts 22°
2026-04-26 02:38 -4.12598 -32.75160 8455 ft 288 kts 22°
2026-04-26 02:39 -4.10705 -32.74423 8133 ft 287 kts 22°
2026-04-26 02:39 -4.08833 -32.73694 7814 ft 286 kts 22°
2026-04-26 02:39 -4.06987 -32.72975 7499 ft 285 kts 22°
2026-04-26 02:39 -4.05145 -32.72259 7181 ft 279 kts 22°
2026-04-26 02:40 -4.03348 -32.71560 6871 ft 274 kts 22°
2026-04-26 02:40 -4.01572 -32.70869 6568 ft 268 kts 22°
2026-04-26 02:40 -3.99841 -32.70195 6273 ft 264 kts 22°
2026-04-26 02:40 -3.98135 -32.69532 5977 ft 259 kts 22°
2026-04-26 02:41 -3.96552 -32.68916 5614 ft 227 kts 22°
2026-04-26 02:41 -3.95099 -32.68350 5528 ft 225 kts 22°
2026-04-26 02:41 -3.93611 -32.67771 5225 ft 226 kts 22°
2026-04-26 02:41 -3.92158 -32.67160 4966 ft 225 kts 25°
2026-04-26 02:42 -3.90735 -32.66514 4715 ft 224 kts 24°
2026-04-26 02:42 -3.89323 -32.65877 4467 ft 223 kts 24°
2026-04-26 02:42 -3.87902 -32.65236 4218 ft 222 kts 24°
2026-04-26 02:42 -3.86494 -32.64601 3973 ft 221 kts 24°
2026-04-26 02:43 -3.84118 -32.62842 3548 ft 215 kts 71°
2026-04-26 02:43 -3.84009 -32.61359 3280 ft 214 kts 94°
2026-04-26 02:43 -3.84110 -32.59871 3012 ft 215 kts 94°
2026-04-26 02:44 -3.84219 -32.58375 2766 ft 215 kts 94°
2026-04-26 02:44 -3.84333 -32.56874 2526 ft 215 kts 94°
2026-04-26 02:44 -3.84447 -32.55389 2289 ft 214 kts 94°
2026-04-26 02:44 -3.84562 -32.53902 2051 ft 214 kts 94°
2026-04-26 02:45 -3.84678 -32.52409 1812 ft 214 kts 94°
2026-04-26 02:45 -3.84791 -32.50920 1573 ft 214 kts 94°
2026-04-26 02:45 -3.84904 -32.49435 1340 ft 213 kts 94°
2026-04-26 02:45 -3.85012 -32.48032 1181 ft 186 kts 94°
2026-04-26 02:46 -3.85102 -32.46861 948 ft 151 kts 94°
2026-04-26 02:46 -3.85175 -32.45908 878 ft 127 kts 95°
2026-04-26 02:46 -3.85246 -32.45020 803 ft 131 kts 96°
2026-04-26 02:46 -3.85319 -32.44046 617 ft 134 kts 95°
2026-04-26 02:47 -3.85380 -32.43145 244 ft 125 kts 96°
2026-04-26 02:47 -3.85436 -32.42392 183 ft 66 kts 95°
2026-04-26 02:47 -3.85439 -32.42257 183 ft 7 kts 353°
2026-04-26 02:47 -3.85441 -32.42304 183 ft 7 kts 256°
2026-04-26 02:48 -3.85445 -32.42341 183 ft 5 kts 266°
2026-04-26 02:48 -3.85442 -32.42388 182 ft 8 kts 276°
2026-04-26 02:48 -3.85432 -32.42469 182 ft 14 kts 274°
2026-04-26 02:48 -3.85423 -32.42591 183 ft 20 kts 275°
2026-04-26 02:49 -3.85441 -32.42701 184 ft 12 kts 205°
2026-04-26 02:49 -3.85522 -32.42731 183 ft 12 kts 199°
2026-04-26 02:49 -3.85588 -32.42736 183 ft 2 kts 208°
2026-04-26 02:49 -3.85591 -32.42744 183 ft 0 kts 268°